Showing default

IRIDIUM 135, 43070

Orbit data source: Space-Track

IRIDIUM 135, 43070 is a payload satellite owned by Iridium (US) in LEO that was launched on Sat, 23 Dec 2017 UTC via an FALCON 9 launch vehicle from the Air Force Western Test Range (AFWTR). Payload-class satellites include a variety of spacecraft equipped with specific instruments for various scientific and technological missions. These include communications satellites like Starlink; space stations such as the ISS; scientific satellites like the Hubble; Earth observation satellites from companies like Planet Labs, Umbra, and HawkEye 360; GPS; miniature CubeSats for education and research; and military/defense satellites.

Loading next visibility...
Identifier
43070, 2017-083A
Orbit
LEO
Country
Flag of USUS
Related business
Manufacturer
OATK SSG Gilbert
Mission
Operational Commercial Communications
Bus & Motor
ELITEBUS, Unknown motor
Mass
860 kg wet, 700 kg dry
Launch date (UTC)
2017-12-23 (8 years ago)
Launch vehicle
FALCON 9
Launch site
Air Force Western Test Range (AFWTR)
Object type
Payload
Rocket body
Debris
Shape & HBR
Trap Box + 2 Pan, 4.8 m
Radar Cross Section
10.154 m², Large (>1 m²)

Expand to show TLE details & history
Last TLE update: 14 hours ago

TLE from 14 hours ago
0 IRIDIUM 135
1 43070U 17083A   26033.49832447  .00000033  00000-0  46731-5 0  9990
2 43070  86.3968  18.2949 0002180  89.1402 271.0043 14.34217281424846
Epoch: 2026-02-02T11:57Z
TLE epoch observation values (Epoch: 2026-02-02T11:57:35.234Z)
Latitude
-0.00006°
Longitude
66.20534°
Altitude
780.693 km
Speed
7.464 km/s
True Right ascension
01h 13m 10s
True Declination
0° 00' 00"
Sunlit
Object was in daylight at epoch
Visualization orbit readout
Latitude
Unknown
Longitude
Unknown
Altitude
Unknown
Speed
Unknown
Apparent Right ascension
Unknown
Apparent Declination
Unknown
Sunlit
N/A
Visualization observer readout
Local Sidereal Time
03:30:22
Azimuth
Unknown
Elevation
Unknown
Doppler factor
Unknown
Orbital elements
Apogee altitude
776.193 km
Perigee altitude
773.074 km
Semi-major axis
7,152.77 km
Eccentricity
0.00022
Inclination
86.3968°
RAAN
18.2949°
Arg. of periapsis
89.1402°
True anomaly
270.97932°
Mean anomaly
271.0043°
Eccentric anomaly
270.99181°
Mean motion
3.58783 °/min
Orbital period
100.34 mins
BSTAR
0.0000046731
Loading maneuver chart data...
Computing Atmospheric mass density...
Loading historical data...
Loading historical data...
Loading historical data...
Loading historical data...
Loading historical data...
Loading historical data...
Loading historical data...

Documentation

Showing up to 5 results
|